When you browse on this site, cookies collect data to enhance your experience and personalize the content and advertising you see.
Visit our Privacy Policy to learn more. By continuing to use the site, you agree to this use of cookies and data.
  • In United Kingdom
  • List of Countries
  • For 7 days
  • Water Temperature
  • Weather Map
  • Weather Widgets
  • user-avatar
    Login

    Hourly Weather Chipping Sodbury

    Today, 19 September, Thursday

    Time Temperature Precipitation Wind Pressure Humidity
    00:00 +11°C° 0 mm 1 mps 763 mmHg 86%
    01:00 +11°C° 0 mm 1 mps 763 mmHg 86%
    02:00 +10°C° 0 mm 1 mps 763 mmHg 87%
    03:00 +10°C° 0 mm 1 mps 763 mmHg 88%
    04:00 +10°C° 0 mm 1 mps 763 mmHg 88%
    05:00 +10°C° 0 mm 1 mps 763 mmHg 88%
    06:00 +9°C° 0 mm 1 mps 763 mmHg 88%
    07:00 +11°C° 0 mm 1 mps 763 mmHg 82%
    08:00 +13°C° 0 mm 1 mps 763 mmHg 77%
    09:00 +15°C° 0 mm 1 mps 764 mmHg 71%
    10:00 +16°C° 0 mm 1 mps 764 mmHg 66%
    11:00 +18°C° 0 mm 1 mps 763 mmHg 62%
    12:00 +19°C° 0 mm 2 mps 763 mmHg 58%
    13:00 +19°C° 0 mm 2 mps 763 mmHg 57%
    14:00 +20°C° 0 mm 2 mps 763 mmHg 56%
    15:00 +20°C° 0 mm 2 mps 763 mmHg 56%
    16:00 +19°C° 0 mm 2 mps 762 mmHg 61%
    17:00 +18°C° 0 mm 2 mps 762 mmHg 67%
    18:00 +16°C° 0 mm 2 mps 762 mmHg 72%
    19:00 +15°C° 0 mm 2 mps 762 mmHg 76%
    20:00 +14°C° 0 mm 2 mps 762 mmHg 79%
    21:00 +13°C° 0 mm 2 mps 762 mmHg 82%
    22:00 +13°C° 0 mm 2 mps 762 mmHg 83%
    23:00 +12°C° 0 mm 2 mps 762 mmHg 85%

    Tomorrow, 20 September, Friday

    Time Temperature Precipitation Wind Pressure Humidity
    00:00 +10°C° 0 mm 2 mps 761 mmHg 86%
    01:00 +10°C° 0 mm 2 mps 761 mmHg 88%
    02:00 +10°C° 0 mm 2 mps 761 mmHg 89%
    03:00 +9°C° 0 mm 2 mps 761 mmHg 91%
    04:00 +9°C° 0 mm 2 mps 760 mmHg 92%
    05:00 +9°C° 0 mm 2 mps 760 mmHg 92%
    06:00 +9°C° 0 mm 3 mps 759 mmHg 93%
    07:00 +10°C° 0 mm 3 mps 759 mmHg 84%
    08:00 +12°C° 0 mm 4 mps 759 mmHg 75%
    09:00 +14°C° 0 mm 5 mps 759 mmHg 65%
    10:00 +15°C° 0 mm 5 mps 758 mmHg 60%
    11:00 +16°C° 0 mm 5 mps 758 mmHg 55%
    12:00 +19°C° 0 mm 6 mps 757 mmHg 49%
    13:00 +19°C° 0 mm 6 mps 757 mmHg 48%
    14:00 +20°C° 0 mm 6 mps 756 mmHg 46%
    15:00 +20°C° 0 mm 6 mps 755 mmHg 44%
    16:00 +17°C° 0 mm 5 mps 754 mmHg 48%
    17:00 +16°C° 0 mm 5 mps 754 mmHg 53%
    18:00 +14°C° 0 mm 4 mps 753 mmHg 57%
    19:00 +14°C° 0 mm 5 mps 753 mmHg 57%
    20:00 +13°C° 0 mm 5 mps 753 mmHg 58%
    21:00 +13°C° 0 mm 5 mps 753 mmHg 59%
    22:00 +12°C° 0 mm 5 mps 752 mmHg 61%
    23:00 +12°C° 0 mm 5 mps 752 mmHg 63%

    Day after tomorrow, 21 September, Saturday

    Time Temperature Precipitation Wind Pressure Humidity
    00:00 +12°C° 0 mm 5 mps 751 mmHg 65%
    01:00 +12°C° 0 mm 5 mps 750 mmHg 67%
    02:00 +12°C° 0 mm 5 mps 750 mmHg 68%
    03:00 +10°C° 0 mm 5 mps 749 mmHg 70%
    04:00 +10°C° 0 mm 5 mps 749 mmHg 72%
    05:00 +10°C° 0 mm 5 mps 748 mmHg 74%
    06:00 +10°C° 0 mm 5 mps 748 mmHg 76%
    07:00 +12°C° 0 mm 5 mps 747 mmHg 73%
    08:00 +14°C° 0 mm 5 mps 747 mmHg 71%
    09:00 +15°C° 0 mm 6 mps 747 mmHg 69%
    10:00 +17°C° 0 mm 6 mps 747 mmHg 67%
    11:00 +20°C° 0 mm 6 mps 746 mmHg 65%
    12:00 +22°C° 0 mm 6 mps 746 mmHg 62%
    13:00 +22°C° 0 mm 6 mps 745 mmHg 63%
    14:00 +23°C° 0 mm 6 mps 745 mmHg 64%
    15:00 +23°C° 0 mm 6 mps 744 mmHg 65%
    16:00 +22°C° 0 mm 6 mps 744 mmHg 69%
    17:00 +21°C° 0 mm 5 mps 743 mmHg 73%
    18:00 +20°C° 0 mm 5 mps 743 mmHg 76%
    19:00 +19°C° 0.2 mm 5 mps 743 mmHg 79%
    20:00 +19°C° 0.2 mm 5 mps 743 mmHg 83%
    21:00 +17°C° 0.2 mm 5 mps 743 mmHg 86%
    22:00 +17°C° 0.1 mm 5 mps 743 mmHg 88%
    23:00 +18°C° 0.1 mm 4 mps 742 mmHg 91%

    22 September, Sunday

    Time Temperature Precipitation Wind Pressure Humidity
    00:00 +17°C° 0.1 mm 3 mps 742 mmHg 93%
    01:00 +17°C° 0.1 mm 3 mps 742 mmHg 94%
    02:00 +17°C° 0.1 mm 3 mps 742 mmHg 95%
    03:00 +17°C° 0.1 mm 3 mps 742 mmHg 95%
    04:00 +16°C° 0.1 mm 3 mps 742 mmHg 95%
    05:00 +15°C° 0.1 mm 4 mps 742 mmHg 94%
    06:00 +15°C° 0.1 mm 4 mps 742 mmHg 93%
    07:00 +15°C° 0.1 mm 4 mps 742 mmHg 89%
    08:00 +15°C° 0.1 mm 5 mps 743 mmHg 85%
    09:00 +16°C° 0.1 mm 6 mps 743 mmHg 81%
    10:00 +17°C° 0.1 mm 6 mps 743 mmHg 75%
    11:00 +17°C° 0.1 mm 6 mps 743 mmHg 70%
    12:00 +18°C° 0.1 mm 7 mps 743 mmHg 65%
    13:00 +18°C° 0.1 mm 8 mps 743 mmHg 66%
    14:00 +18°C° 0.1 mm 8 mps 744 mmHg 67%
    15:00 +17°C° 0.1 mm 9 mps 744 mmHg 68%
    16:00 +16°C° 0 mm 8 mps 744 mmHg 70%
    17:00 +15°C° 0 mm 7 mps 745 mmHg 72%
    18:00 +14°C° 0 mm 6 mps 745 mmHg 74%
    19:00 +13°C° 0 mm 5 mps 746 mmHg 77%
    20:00 +12°C° 0 mm 4 mps 747 mmHg 79%
    21:00 +11°C° 0 mm 4 mps 747 mmHg 82%
    22:00 +11°C° 0 mm 4 mps 747 mmHg 85%
    23:00 +10°C° 0 mm 3 mps 748 mmHg 87%

    23 September, Monday

    Time Temperature Precipitation Wind Pressure Humidity
    00:00 +10°C° 0 mm 3 mps 748 mmHg 89%
    01:00 +10°C° 0 mm 3 mps 748 mmHg 90%
    02:00 +10°C° 0 mm 3 mps 748 mmHg 91%
    03:00 +10°C° 0 mm 3 mps 748 mmHg 92%
    04:00 +11°C° 0 mm 3 mps 748 mmHg 92%
    05:00 +11°C° 0 mm 3 mps 747 mmHg 91%
    06:00 +12°C° 0 mm 3 mps 747 mmHg 90%
    07:00 +12°C° 0.5 mm 4 mps 747 mmHg 91%
    08:00 +13°C° 0.5 mm 5 mps 747 mmHg 92%
    09:00 +13°C° 0.5 mm 6 mps 746 mmHg 92%
    10:00 +14°C° 1 mm 7 mps 746 mmHg 93%
    11:00 +15°C° 1 mm 7 mps 745 mmHg 93%
    12:00 +15°C° 1 mm 8 mps 745 mmHg 94%
    13:00 +16°C° 0.4 mm 7 mps 745 mmHg 94%
    14:00 +17°C° 0.4 mm 7 mps 744 mmHg 93%
    15:00 +17°C° 0.4 mm 6 mps 744 mmHg 93%
    16:00 +17°C° 0.8 mm 6 mps 744 mmHg 94%
    17:00 +17°C° 0.8 mm 6 mps 744 mmHg 94%
    18:00 +17°C° 0.8 mm 6 mps 744 mmHg 95%
    19:00 +17°C° 0.3 mm 6 mps 745 mmHg 94%
    20:00 +17°C° 0.3 mm 6 mps 745 mmHg 94%
    21:00 +17°C° 0.3 mm 5 mps 746 mmHg 94%
    22:00 +17°C° 0.1 mm 5 mps 746 mmHg 95%
    23:00 +18°C° 0.1 mm 4 mps 746 mmHg 95%

    24 September, Tuesday

    Time Temperature Precipitation Wind Pressure Humidity
    00:00 +17°C° 0.1 mm 4 mps 746 mmHg 95%
    01:00 +17°C° 0.1 mm 4 mps 746 mmHg 96%
    02:00 +17°C° 0.1 mm 4 mps 745 mmHg 96%
    03:00 +16°C° 0.1 mm 5 mps 745 mmHg 96%
    04:00 +16°C° 0.2 mm 5 mps 745 mmHg 96%
    05:00 +16°C° 0.2 mm 6 mps 744 mmHg 95%
    06:00 +17°C° 0.2 mm 6 mps 744 mmHg 94%
    07:00 +17°C° 0.7 mm 7 mps 743 mmHg 94%
    08:00 +17°C° 0.7 mm 8 mps 743 mmHg 94%
    09:00 +17°C° 0.7 mm 8 mps 742 mmHg 93%
    10:00 +17°C° 2.4 mm 9 mps 742 mmHg 93%
    11:00 +17°C° 2.4 mm 9 mps 741 mmHg 92%
    12:00 +17°C° 2.4 mm 10 mps 741 mmHg 91%
    13:00 +17°C° 0.7 mm 9 mps 741 mmHg 86%
    14:00 +18°C° 0.7 mm 9 mps 741 mmHg 81%
    15:00 +18°C° 0.7 mm 9 mps 741 mmHg 75%
    16:00 +17°C° 0.1 mm 8 mps 741 mmHg 77%
    17:00 +16°C° 0.1 mm 8 mps 741 mmHg 79%
    18:00 +14°C° 0.1 mm 7 mps 741 mmHg 80%
    19:00 +13°C° 0.1 mm 8 mps 741 mmHg 81%
    20:00 +13°C° 0.1 mm 9 mps 741 mmHg 83%
    21:00 +13°C° 0.1 mm 9 mps 741 mmHg 84%
    22:00 +13°C° 0.2 mm 9 mps 741 mmHg 86%
    23:00 +13°C° 0.2 mm 8 mps 741 mmHg 87%
    Show more